This demonstration page uses our WeatherBlox Daily Observations layout. Learn more.

Left ArrowRight Arrow

44.89941, -97.11507

Hourly Observations for February 12, 2021

Temp ( °F °C ) Dew Point ( °F °C ) Humidity (%) Winds ( mph kmh ) Pressure ( in mb ) Visibility ( mi km ) Precip ( " mm )
12:53 am 00:53 Clear -15 -26.1 -19 -28.3 82 82 NW 5 7 30.69 1039 10 16 0.00 0.00
1:53 am 01:53 Mostly Clear -15 -26.1 -21 -29.4 74 74 Calm 30.68 1039 9 14 0.00 0.00
2:53 am 02:53 Clear -18 -27.8 -21 -29.4 86 86 WSW 6 9 30.69 1039 10 16 0.00 0.00
3:53 am 03:53 Clear -20 -28.9 -22 -30 90 90 W 6 9 30.68 1039 10 16 0.00 0.00
4:53 am 04:53 Clear -22 -30 -25 -31.7 85 85 Calm 30.68 1039 9 14 0.00 0.00
5:53 am 05:53 Clear -20 -28.9 -24 -31.1 81 81 Calm 30.68 1039 10 16 0.00 0.00
6:53 am 06:53 Clear -18 -27.8 -21 -29.4 86 86 W 6 9 30.68 1039 10 16 0.00 0.00
7:53 am 07:53 Sunny -18 -27.8 -22 -30 81 81 W 7 11 30.68 1039 10 16 0.00 0.00
8:53 am 08:53 Sunny -18 -27.8 -22 -30 81 81 W 7 11 30.69 1039 9 14 0.00 0.00
9:53 am 09:53 Sunny -14 -25.6 -20 -28.9 74 74 W 6 9 30.68 1039 10 16 0.00 0.00
10:53 am 10:53 Sunny -12 -24.4 -21 -29.4 63 63 W 8 13 30.68 1039 10 16 0.00 0.00
11:53 am 11:53 Sunny -10 -23.3 -20 -28.9 60 60 W 9 15 30.66 1038 10 16 0.00 0.00
12:53 pm 12:53 Sunny -9 -22.8 -19 -28.3 61 61 W 13 20 30.63 1037 10 16 0.00 0.00
1:53 pm 13:53 Sunny -8 -22.2 -19 -28.3 58 58 W 14 22 30.61 1037 10 16 0.00 0.00
2:53 pm 14:53 Sunny -8 -22.2 -18 -27.8 61 61 W 12 19 30.61 1037 10 16 0.00 0.00
3:18 pm 15:18 Mostly Cloudy -8 -22.2 -16 -26.7 67 67 W 12 19 30.68 1039 8 13 0.00 0.00
3:51 pm 15:51 Cloudy with Haze -8 -22 -15 -26 70 70 SW 10 17 30.67 1038 2 3 0.00 0.00
3:53 pm 15:53 Cloudy with Haze -8 -22.2 -14 -25.6 74 74 SW 8 13 30.60 1036 2 2 0.00 0.00
4:05 pm 16:05 Cloudy with Haze -8 -22.2 -14 -25.6 74 74 SW 7 11 30.67 1039 3 5 0.00 0.00
4:24 pm 16:24 Partly Cloudy -7 -21.7 -16 -26.7 64 64 W 10 17 30.65 1038 10 16 0.00 0.00
4:53 pm 16:53 Sunny -7 -21.7 -17 -27.2 61 61 W 10 17 30.59 1036 10 16 0.00 0.00
5:53 pm 17:53 Clear -8 -22.2 -18 -27.8 61 61 W 7 11 30.59 1036 10 16 0.00 0.00
6:53 pm 18:53 Clear -10 -23.3 -18 -27.8 67 67 W 6 9 30.61 1037 10 16 0.00 0.00
7:53 pm 19:53 Clear -12 -24.4 -18 -27.8 73 73 SSW 3 6 30.61 1037 10 16 0.00 0.00
8:53 pm 20:53 Clear -9 -22.8 -17 -27.2 67 67 SW 3 6 30.60 1036 10 16 0.00 0.00
9:53 pm 21:53 Clear -9 -22.8 -17 -27.2 67 67 Calm 30.59 1036 10 16 0.00 0.00
10:53 pm 22:53 Clear -9 -22.8 -16 -26.7 71 71 SW 5 7 30.60 1036 10 16 0.00 0.00
11:53 pm 23:53 Clear -9 -22.8 -17 -27.2 67 67 SW 5 7 30.59 1036 10 16 0.00 0.00

Powered by AerisWeather